EWG9XN LEPA-EDLP

Flight info

Callsign EWG9XN
Flight time N/A
Altitude 38000
Route GALAT DCT RODRA DCT VNV DCT ANTON DCT BISES DCT SADUR DCT CAVES DCT LATRO DCT OLOXO DCT OKABI DCT TOU DCT ADABI DCT BOKNO DCT DIBES DCT VIQAQ DCT TSU UN858 OQQAL DCT RANUX/N0428F390 DCT VALEK DCT LUTAX UM163 DIK T856 AFNAF M170 PADBA PADBA4H
Aircraft A20N/M-SDE2E3FGHIRWXY/LB1

Departure

Time N/A
Airport Palma de Mallorca Airport (LEPA)

Arrival

Time 2026-05-01 08:52
Airport Paderborn Lippstadt Airport (EDLP)
Time Latitude Longitude Altitude Speed Heading
2026-05-01 07:23 44.71688 1.03878 38207 ft 440 kts 347°
2026-05-01 07:24 44.80711 1.01470 38206 ft 440 kts 347°
2026-05-01 07:24 44.86726 0.99861 38206 ft 440 kts 347°
2026-05-01 07:25 44.92737 0.98250 38217 ft 440 kts 347°
2026-05-01 07:25 44.98750 0.96634 38221 ft 440 kts 347°
2026-05-01 07:26 45.04773 0.95013 38232 ft 441 kts 347°
2026-05-01 07:26 45.10803 0.93387 38234 ft 441 kts 347°
2026-05-01 07:27 45.16824 0.91758 38238 ft 441 kts 347°
2026-05-01 07:27 45.22847 0.90127 38236 ft 440 kts 347°
2026-05-01 07:28 45.28865 0.88492 38233 ft 440 kts 347°
2026-05-01 07:28 45.34864 0.86860 38234 ft 440 kts 347°
2026-05-01 07:29 45.40885 0.85218 38237 ft 440 kts 347°
2026-05-01 07:29 45.46903 0.83573 38227 ft 440 kts 347°
2026-05-01 07:30 45.52921 0.81925 38229 ft 441 kts 347°
2026-05-01 07:30 45.58943 0.80272 38237 ft 441 kts 347°
2026-05-01 07:31 45.64964 0.78615 38224 ft 441 kts 347°
2026-05-01 07:32 45.80031 0.74454 38236 ft 441 kts 347°
2026-05-01 07:33 45.89034 0.71957 38228 ft 441 kts 347°
2026-05-01 07:33 45.98077 0.69440 38236 ft 441 kts 347°
2026-05-01 07:34 46.07132 0.66911 38221 ft 442 kts 347°
2026-05-01 07:35 46.13160 0.65224 38223 ft 442 kts 347°
2026-05-01 07:35 46.19197 0.63529 38221 ft 442 kts 347°
2026-05-01 07:36 46.25235 0.61831 38219 ft 442 kts 347°
2026-05-01 07:36 46.31276 0.60128 38220 ft 443 kts 347°
2026-05-01 07:37 46.40326 0.57570 38227 ft 443 kts 348°
2026-05-01 07:37 46.46375 0.55855 38230 ft 443 kts 348°
2026-05-01 07:38 46.52428 0.54165 38230 ft 443 kts 351°
2026-05-01 07:38 46.58596 0.54067 38236 ft 447 kts
2026-05-01 07:39 46.61661 0.54919 38240 ft 448 kts 12°
2026-05-01 07:39 46.70789 0.57917 38238 ft 448 kts 12°
2026-05-01 07:40 46.76871 0.59915 38232 ft 448 kts 12°
2026-05-01 07:40 46.82951 0.61926 38230 ft 448 kts 12°
2026-05-01 07:41 46.89020 0.63940 38221 ft 448 kts 12°
2026-05-01 07:42 46.98147 0.66976 38221 ft 448 kts 12°
2026-05-01 07:42 47.04161 0.69404 38219 ft 449 kts 21°
2026-05-01 07:43 47.09689 0.73628 38216 ft 449 kts 31°
2026-05-01 07:43 47.17707 0.80751 38213 ft 450 kts 31°
2026-05-01 07:44 47.28419 0.90323 38222 ft 451 kts 32°
2026-05-01 07:45 47.33711 0.95077 38228 ft 451 kts 32°
2026-05-01 07:45 47.39072 0.99903 38235 ft 452 kts 32°
2026-05-01 07:46 47.44434 1.04743 38239 ft 452 kts 32°
2026-05-01 07:47 47.52539 1.11868 38240 ft 452 kts 28°
2026-05-01 07:47 47.57963 1.16082 38237 ft 453 kts 28°
2026-05-01 07:48 47.66258 1.22573 38224 ft 450 kts 28°
2026-05-01 07:48 47.71760 1.26892 38221 ft 450 kts 28°
2026-05-01 07:49 47.80063 1.33429 38221 ft 450 kts 29°
2026-05-01 07:50 47.85594 1.37796 38217 ft 450 kts 29°
2026-05-01 07:50 47.93654 1.44180 38214 ft 449 kts 29°
2026-05-01 07:51 47.99151 1.48547 38215 ft 449 kts 29°
2026-05-01 07:52 48.07353 1.55082 38217 ft 449 kts 29°
2026-05-01 07:52 48.12866 1.59488 38216 ft 449 kts 29°
2026-05-01 07:53 48.21131 1.66115 38215 ft 449 kts 29°
2026-05-01 07:53 48.26632 1.70539 38219 ft 449 kts 30°
2026-05-01 07:55 48.40354 1.81623 38220 ft 449 kts 30°
2026-05-01 07:56 48.53763 1.92519 38218 ft 449 kts 30°
2026-05-01 07:57 48.61075 1.98490 38221 ft 449 kts 30°
2026-05-01 07:58 48.68388 2.04481 38232 ft 449 kts 30°
2026-05-01 07:59 48.69384 2.05298 38243 ft 449 kts 30°
2026-05-01 07:59 48.74265 2.11021 38233 ft 443 kts 53°
2026-05-01 08:00 48.78598 2.28099 38235 ft 437 kts 76°
2026-05-01 08:01 48.81792 2.45922 38243 ft 438 kts 77°
2026-05-01 08:02 48.84146 2.59187 38249 ft 439 kts 77°
2026-05-01 08:03 48.86511 2.72623 38249 ft 439 kts 77°
2026-05-01 08:03 48.88861 2.86078 38255 ft 439 kts 77°
2026-05-01 08:04 48.91970 3.04024 38258 ft 437 kts 77°
2026-05-01 08:05 48.94271 3.17433 38249 ft 437 kts 77°
2026-05-01 08:06 48.96556 3.30852 38333 ft 438 kts 77°
2026-05-01 08:06 48.98073 3.39819 38850 ft 437 kts 77°
2026-05-01 08:07 48.99574 3.48734 39224 ft 437 kts 77°
2026-05-01 08:08 49.01818 3.62151 39257 ft 434 kts 77°
2026-05-01 08:09 49.04776 3.80000 39263 ft 434 kts 77°
2026-05-01 08:09 49.06239 3.88898 39267 ft 433 kts 77°
2026-05-01 08:10 49.09144 4.06703 39260 ft 432 kts 77°
2026-05-01 08:11 49.12018 4.24511 39255 ft 432 kts 77°
2026-05-01 08:12 49.14349 4.37800 39255 ft 433 kts 71°
2026-05-01 08:13 49.17787 4.50487 39268 ft 433 kts 69°
2026-05-01 08:13 49.21257 4.63333 39276 ft 437 kts 69°
2026-05-01 08:14 49.23569 4.71920 39276 ft 437 kts 69°
2026-05-01 08:14 49.25880 4.80541 39279 ft 438 kts 69°
2026-05-01 08:15 49.29344 4.93520 39282 ft 439 kts 69°
2026-05-01 08:16 49.31638 5.02153 39279 ft 439 kts 69°
2026-05-01 08:16 49.33920 5.10774 39273 ft 439 kts 69°
2026-05-01 08:17 49.36208 5.19454 39277 ft 439 kts 68°
2026-05-01 08:17 49.38470 5.28067 39273 ft 439 kts 68°
2026-05-01 08:18 49.40749 5.36776 39277 ft 439 kts 68°
2026-05-01 08:19 49.44132 5.54760 39278 ft 439 kts 78°
2026-05-01 08:19 49.45413 5.63949 39279 ft 440 kts 78°
2026-05-01 08:19 49.46251 5.68453 39278 ft 439 kts 67°
2026-05-01 08:20 49.46955 5.70737 39276 ft 439 kts 60°
2026-05-01 08:20 49.48718 5.74548 39273 ft 438 kts 47°
2026-05-01 08:20 49.50975 5.77687 39278 ft 438 kts 37°
2026-05-01 08:21 49.56035 5.82887 39294 ft 438 kts 32°
2026-05-01 08:21 49.61200 5.87899 39306 ft 439 kts 32°
2026-05-01 08:22 49.66330 5.92993 39309 ft 438 kts 32°
2026-05-01 08:22 49.71345 5.98030 39312 ft 437 kts 32°
2026-05-01 08:23 49.76439 6.03165 39308 ft 436 kts 32°
2026-05-01 08:23 49.81367 6.08145 39307 ft 437 kts 32°
2026-05-01 08:24 49.86529 6.13113 39303 ft 436 kts 27°
2026-05-01 08:24 49.92025 6.17049 39302 ft 435 kts 24°
2026-05-01 08:25 49.97537 6.20952 39298 ft 436 kts 25°
2026-05-01 08:25 50.02978 6.24955 39299 ft 435 kts 25°
2026-05-01 08:26 50.08452 6.28992 39302 ft 435 kts 25°
2026-05-01 08:26 50.13930 6.33021 39301 ft 435 kts 25°
2026-05-01 08:27 50.19403 6.37051 39299 ft 435 kts 25°
2026-05-01 08:27 50.24878 6.41093 39299 ft 435 kts 25°
2026-05-01 08:28 50.30349 6.45143 39301 ft 435 kts 25°
2026-05-01 08:28 50.35740 6.49273 39302 ft 436 kts 29°
2026-05-01 08:29 50.40829 6.54409 39253 ft 434 kts 33°
2026-05-01 08:29 50.43347 6.57017 38849 ft 434 kts 33°
2026-05-01 08:29 50.45878 6.59632 38013 ft 437 kts 33°
2026-05-01 08:29 50.48434 6.62280 37029 ft 443 kts 33°
2026-05-01 08:30 50.51023 6.64973 36002 ft 450 kts 33°
2026-05-01 08:30 50.53641 6.67704 35098 ft 453 kts 33°
2026-05-01 08:30 50.56249 6.70431 34250 ft 455 kts 33°
2026-05-01 08:30 50.58884 6.73194 33304 ft 455 kts 33°
2026-05-01 08:31 50.61509 6.75950 32404 ft 455 kts 33°
2026-05-01 08:31 50.62957 6.77473 31876 ft 455 kts 33°
2026-05-01 08:31 50.65591 6.80244 30998 ft 454 kts 33°
2026-05-01 08:31 50.68081 6.82816 30030 ft 455 kts 30°
2026-05-01 08:32 50.71032 6.84899 29002 ft 454 kts 18°
2026-05-01 08:32 50.74107 6.85864 28352 ft 448 kts
2026-05-01 08:32 50.77179 6.85820 27886 ft 438 kts 358°
2026-05-01 08:32 50.80176 6.85562 27611 ft 423 kts 358°
2026-05-01 08:33 50.83079 6.85316 27052 ft 417 kts 358°
2026-05-01 08:33 50.85984 6.85081 26370 ft 415 kts 358°
2026-05-01 08:33 50.88857 6.84855 25743 ft 412 kts 358°
2026-05-01 08:34 50.90125 6.84755 25473 ft 411 kts 358°
2026-05-01 08:34 50.93038 6.84350 24804 ft 408 kts 359°
2026-05-01 08:34 50.95837 6.84749 24186 ft 403 kts 14°
2026-05-01 08:34 50.98446 6.86303 23514 ft 399 kts 30°
2026-05-01 08:35 51.00660 6.88894 22849 ft 394 kts 46°
2026-05-01 08:35 51.02312 6.92315 22212 ft 389 kts 61°
2026-05-01 08:35 51.03558 6.96096 21631 ft 384 kts 64°
2026-05-01 08:35 51.04816 6.99821 21029 ft 381 kts 61°
2026-05-01 08:36 51.06197 7.03396 20445 ft 378 kts 58°
2026-05-01 08:36 51.07676 7.06837 19886 ft 375 kts 56°
2026-05-01 08:36 51.09194 7.10172 19318 ft 372 kts 55°
2026-05-01 08:36 51.10737 7.13475 18766 ft 369 kts 55°
2026-05-01 08:37 51.12268 7.16733 18137 ft 367 kts 55°
2026-05-01 08:37 51.13788 7.19972 17524 ft 364 kts 55°
2026-05-01 08:37 51.15293 7.23186 16947 ft 360 kts 56°
2026-05-01 08:37 51.16783 7.26374 16363 ft 357 kts 56°
2026-05-01 08:38 51.18258 7.29544 15814 ft 354 kts 57°
2026-05-01 08:38 51.19150 7.31702 15425 ft 351 kts 62°
2026-05-01 08:38 51.20298 7.35115 14901 ft 348 kts 64°
2026-05-01 08:38 51.21353 7.38294 14403 ft 346 kts 64°
2026-05-01 08:39 51.22471 7.41641 13832 ft 343 kts 64°
2026-05-01 08:39 51.23589 7.44982 13289 ft 340 kts 64°
2026-05-01 08:39 51.24697 7.48304 12736 ft 338 kts 65°
2026-05-01 08:39 51.25791 7.51599 12220 ft 335 kts 65°
2026-05-01 08:40 51.27956 7.58123 11194 ft 329 kts 65°
2026-05-01 08:40 51.29023 7.61342 10716 ft 326 kts 65°
2026-05-01 08:40 51.30063 7.64481 10571 ft 312 kts 65°
2026-05-01 08:41 51.31056 7.67484 10448 ft 299 kts 65°
2026-05-01 08:41 51.31978 7.70371 10331 ft 284 kts 67°
2026-05-01 08:41 51.32799 7.73186 10056 ft 277 kts 69°
2026-05-01 08:41 51.33596 7.75997 9589 ft 278 kts 69°
2026-05-01 08:42 51.34389 7.78786 9247 ft 274 kts 69°
2026-05-01 08:42 51.35183 7.81555 8789 ft 274 kts 69°
2026-05-01 08:42 51.35982 7.84321 8398 ft 272 kts 68°
2026-05-01 08:42 51.36778 7.87062 8001 ft 272 kts 68°
2026-05-01 08:43 51.37574 7.89797 7620 ft 270 kts 68°
2026-05-01 08:43 51.38365 7.92514 7277 ft 268 kts 68°
2026-05-01 08:43 51.39151 7.95217 6891 ft 268 kts 68°
2026-05-01 08:43 51.39933 7.97918 6551 ft 267 kts 69°
2026-05-01 08:44 51.40706 8.00597 6227 ft 264 kts 69°
2026-05-01 08:44 51.41470 8.03247 5928 ft 259 kts 69°
2026-05-01 08:44 51.42216 8.05843 5689 ft 254 kts 69°
2026-05-01 08:44 51.42948 8.08382 5425 ft 248 kts 69°
2026-05-01 08:45 51.43662 8.10867 5189 ft 243 kts 70°
2026-05-01 08:45 51.44365 8.13316 4943 ft 240 kts 69°
2026-05-01 08:45 51.45059 8.15729 4675 ft 237 kts 70°
2026-05-01 08:45 51.45753 8.18132 4431 ft 237 kts 70°
2026-05-01 08:46 51.46448 8.20515 4175 ft 234 kts 70°
2026-05-01 08:46 51.47125 8.22872 3952 ft 233 kts 71°
2026-05-01 08:46 51.47799 8.25228 3692 ft 231 kts 71°
2026-05-01 08:46 51.48462 8.27565 3450 ft 230 kts 71°
2026-05-01 08:47 51.49118 8.29904 3196 ft 229 kts 70°
2026-05-01 08:47 51.49765 8.32214 3026 ft 224 kts 72°
2026-05-01 08:47 51.50411 8.34414 2982 ft 213 kts 66°
2026-05-01 08:47 51.51136 8.36434 2999 ft 205 kts 64°
2026-05-01 08:48 51.51907 8.38332 2996 ft 204 kts 62°
2026-05-01 08:48 51.52691 8.40259 2989 ft 205 kts 62°
2026-05-01 08:48 51.53455 8.42119 2995 ft 193 kts 62°
2026-05-01 08:48 51.54173 8.43884 3004 ft 187 kts 63°
2026-05-01 08:49 51.54892 8.45645 2977 ft 185 kts 63°
2026-05-01 08:49 51.55585 8.47334 2685 ft 177 kts 63°
2026-05-01 08:49 51.56243 8.48954 2448 ft 168 kts 63°
2026-05-01 08:49 51.56851 8.50428 2214 ft 151 kts 64°
2026-05-01 08:50 51.57407 8.51802 1995 ft 140 kts 64°
2026-05-01 08:50 51.57915 8.53048 1814 ft 134 kts 63°
2026-05-01 08:50 51.58426 8.54306 1638 ft 131 kts 63°
2026-05-01 08:50 51.58927 8.55545 1428 ft 135 kts 65°
2026-05-01 08:51 51.59434 8.56814 1282 ft 132 kts 63°
2026-05-01 08:51 51.59943 8.58017 1081 ft 130 kts 64°
2026-05-01 08:51 51.60434 8.59231 894 ft 130 kts 63°
2026-05-01 08:51 51.60923 8.60429 744 ft 128 kts 65°
2026-05-01 08:52 51.61356 8.61511 713 ft 81 kts 57°
2026-05-01 08:52 51.61562 8.62010 698 ft 46 kts 56°
2026-05-01 08:52 51.61729 8.62413 687 ft 43 kts 55°
2026-05-01 08:52 51.61879 8.62778 682 ft 31 kts 61°
2026-05-01 08:53 51.61916 8.62975 683 ft 16 kts 108°
2026-05-01 08:53 51.61825 8.63078 681 ft 17 kts 184°
2026-05-01 08:53 51.61745 8.62943 682 ft 17 kts 237°
2026-05-01 08:53 51.61680 8.62785 688 ft 17 kts 236°
2026-05-01 08:54 51.61618 8.62630 697 ft 16 kts 237°
2026-05-01 08:54 51.61557 8.62481 696 ft 16 kts 236°
2026-05-01 08:54 51.61496 8.62336 707 ft 15 kts 236°
2026-05-01 08:54 51.61439 8.62195 715 ft 15 kts 236°
2026-05-01 08:55 51.61380 8.62058 720 ft 16 kts 228°
2026-05-01 08:55 51.61282 8.61995 726 ft 14 kts 189°
2026-05-01 08:55 51.61207 8.61967 731 ft 10 kts 208°
2026-05-01 08:55 51.61159 8.61992 730 ft 2 kts 149°
2026-05-01 08:56 51.61145 8.62006 730 ft 0 kts 147°